Regional Weather Roundup
Issued by NWS

Home | Current Version | Previous Version | Text Only | Print | Product List | Glossary On
Versions: 1 2 3 4 5 6 7 8 9 10 11 12 13 14 15 16 17 18 19 20 21 22 23 24 25 26 27 28 29 30 31 32 33 34 35 36 37 38 39 40 41 42 43 44 45 46 47 48 49 50
000
ASUS43 KTOP 012108
RWRKS

WEATHER ROUNDUP FOR KANSAS
NATIONAL WEATHER SERVICE GOODLAND KS
400 PM CDT WED OCT 01 2014

NOTE:  "FAIR" INDICATES FEW OR NO CLOUDS BELOW 12,000 FEET WITH NO
SIGNIFICANT WEATHER AND/OR OBSTRUCTIONS TO VISIBILITY.

KSZ001>006-013>018-027>032-041>047-012200-
NORTHWEST KANSAS

CITY           SKY/WX    TMP DP  RH WIND       PRES   REMARKS
GOODLAND       MOSUNNY   74  39  28 CALM      29.80S
HAYS           SUNNY     73  61  64 CALM      29.73S
HILL CITY      MOSUNNY   79  54  41 SE3       29.73F
RUSSELL        SUNNY     77  63  61 MISG      29.72R
$$

KSZ061>065-074>080-084>089-012200-
SOUTHWEST KANSAS

CITY           SKY/WX    TMP DP  RH WIND       PRES   REMARKS
DODGE CITY     SUNNY     81  53  37 NE8       29.73F
GARDEN CITY    SUNNY     80  43  26 SE7       29.74F
GREAT BEND     CLOUDY    75  64  69 NE8       29.71F
LIBERAL        SUNNY     82  43  24 CALM      29.74F
PRATT          MOSUNNY   81  55  41 CALM      29.69S
$$

KSZ066>073-081>083-090>101-012200-
SOUTHEAST KANSAS

CITY           SKY/WX    TMP DP  RH WIND       PRES   REMARKS
CHANUTE        CLOUDY    73  64  73 S14G29    29.72R THUNDER
COFFEYVILLE    TSTM      74  68  81 SE13      29.69S
HUTCHINSON     MOSUNNY   84  62  47 S7        29.67S
MEDICINE LODGE   N/A     90  48  23 S13G18    29.64F
NEWTON         MOSUNNY   84  63  48 SE8       29.70F
PARSONS        LGT RAIN  76  73  91 N3        29.73R
WICHITA INTL   MOSUNNY   90  61  37 S17       29.65F
WICHITA JABRA  MOSUNNY   88  62  41 S18       29.66F
WICHITA MCCONL MOSUNNY   87  62  42 S15       29.66F
WINFIELD       MOSUNNY   89  66  46 S15       29.66F
$$

KSZ007>012-019>026-033>040-048>060-102>105-012200-
NORTHEAST KANSAS

CITY           SKY/WX    TMP DP  RH WIND       PRES   REMARKS
CONCORDIA      MOSUNNY   79  62  56 CALM      29.70F
EMPORIA        MOSUNNY   83  69  62 S9        29.69F
LAWRENCE       SUNNY     82  66  58 S8        29.69F
MANHATTAN      PTSUNNY   82  67  60 NE6       29.68F
MARYSVILLE     MOSUNNY   81  61  50 N3        29.70S
OLATHE IND     CLOUDY    79  69  71 CALM      29.70F
OLATHE EXE     SUNNY     79  69  71 CALM      29.70F
SALINA         PTSUNNY   82  67  60 CALM      29.69S
TOPEKA BILLARD PTSUNNY   83  66  56 SE8       29.68F
TOPEKA FORBES  PTSUNNY   82  66  58 S7        29.69F
$$


USA.gov is the U.S. government's official web portal to all federal, state and local government web resources and services.